Погода в Дубровской

Россия / Архангельская область     61°10′05″N   43°37′42″E
темп.,
°C
ветер,
м/с
пор.,
м/с
влажн.,
%
обл.,
%
осадки,
мм/ч
давл.,
гПа
погр.,
м
26 июля, пн
пн2600:00+11юз297947 0.0 1016174
03:00+12зюз3108085 0.0 1016262
06:00+12зюз268797 0.1 1016204
09:00+19з36575 0.1 10161036
12:00+18сз376093 0.0 1016759
15:00+13сз299790 1.9 1016371
18:00+16сз37865 0.6 1016855
21:00+12сз23970 1.3 101753
27 июля, вт
вт2700:00+9сз210955 0.0 1018267
03:00+5сз27970 0.0 1020167
06:00+7сз27920 0.0 1020250
09:00+14сз35535 0.0 1020873
12:00+18сз354049 0.0 10191812
15:00+20сз46355 0.0 10172174
18:00+19сз37425 0.0 10162097
21:00+12сз227065 0.0 101612
28 июля, ср
ср2800:00+9сз11825 0.0 101710
03:00+8з118769 0.0 101610
06:00+12сз116877 0.0 1016120
09:00+18з224750 0.0 1014782
12:00+21з243557 0.0 10111464
15:00+23зюз4936100 0.0 10092372
18:00+15ю369514 2.4 1007133
21:00+13ююз24989 6.3 100787
29 июля, чт
чт2900:00+12юз22965 1.0 100622
03:00+11з229670 1.0 100522
06:00+14з12945 0.1 1004102
09:00+20зюз12685 0.1 1004489
12:00+25юз244693 0.0 10021442
15:00+24юз2352100 0.0 1001128
18:00+21зюз3961100 0.1 1000391
21:00+16юв239198 0.5 100068
30 июля, пт
пт3000:00+15ю2599100 3.6 999128
03:00+14юз2699100 4.7 998167
06:00+16юз389865 0.3 998424
09:00+16зюз3894100 0.4 999825
12:00+20зюз5965100 0.1 9991286
15:00+16зюз5118897 1.0 1001941
18:00+16з4118553 0.1 1001904
21:00+15зюз278943 0.1 1003215